Regional Weather Roundup
Issued by NWS Midland/Odessa, TX

Skip options and go directly to product.
Home | Oldest Version | Previous Version | Current Version | All | Text Only | Save Text | Print | Product List | Glossary Off

Skip product version selection by date and time.   

551
ASUS44 KMAF 230510
RWRMAF
MIDLAND AREA WEATHER ROUNDUP
NATIONAL WEATHER SERVICE MIDLAND TX
1200 AM CDT THU OCT 23 2014

...IN SOUTHWEST TEXAS AND SOUTHEAST NEW MEXICO...

CITY           SKY/WX    TMP DP  RH WIND       PRES   REMARKS
ALPINE         PTCLDY    60  57  91 SW5       30.25R
ANDREWS        FAIR      57  51  82 S8        30.14S
ARTESIA        NOT AVBL
BIG SPRING     PTCLDY    60  54  81 S7        30.16S
CARLSBAD       CLEAR     63  60  90 S9        30.11S
DRYDEN         NOT AVBL
FORT STOCKTON  PTCLDY    62  59  90 S14       30.13R
GUAD PASS      CLEAR     59  55  87 NE8       30.23S
HOBBS          CLEAR     57  57 100 S6        30.16R
MARFA          MOCLDY    57  55  94 CALM      30.24S
MIDLAND AIRPK  CLEAR     60  53  79 S7        30.14F
MIDLAND INTL   CLEAR     60  52  74 S8        30.14S
ODESSA         CLEAR     59  53  80 S7        30.15R
PECOS          PTCLDY    62  59  88 E7        30.10R
PRESIDIO       FAIR      68  60  76 N8        30.12R
SEMINOLE       CLEAR     56  54  90 S3        30.16R
SNYDER         CLEAR     58  56  94 S3        30.14F
WINK           CLEAR     61  55  81 SE12      30.10S
$$
...OTHER STATIONS IN TEXAS...

CITY           SKY/WX    TMP DP  RH WIND       PRES   REMARKS
ABILENE        CLEAR     62  55  77 SE5       30.11F
AMARILLO       CLOUDY    61  59  93 S14       30.13S
AUSTIN         CLOUDY    70  60  70 NE3       30.09R
BROWNSVILLE    CLEAR     73  69  87 NE5       30.03S
CORPUS CHRISTI PTCLDY    74  64  71 E9        30.06S
DALLAS FTW     CLOUDY    70  54  56 SE8       30.10F
DEL RIO        CLOUDY    66  64  93 CALM      30.10F FOG
EL PASO        CLEAR     63  55  75 CALM      30.13R
HOUSTON INT    PTCLDY    64  59  83 E8        30.08F
LUBBOCK        MOCLDY    59  57  93 SE8       30.13F FOG
SAN ANGELO     MOCLDY    61  56  83 SW6       30.13S
SAN ANTONIO    CLOUDY    74  57  55 E6        30.10R
WACO           CLOUDY    66  58  75 SE6       30.10F
WICHITA FALLS  NOT AVBL
$$
...OTHER LOCATIONS IN NEW MEXICO...

CITY           SKY/WX    TMP DP  RH WIND       PRES   REMARKS
ALAMAGORDO     NOT AVBL
ALBUQUERQUE    CLEAR     59  41  51 E5        30.20R
CANNON AFB     CLEAR     56  55  96 S7        30.15S HAZE
CLOVIS         CLEAR     55  54  94 S8        30.17S
HOLLOMAN AFB   CLEAR     57  49  75 E6        30.14R
ROSWELL        CLEAR     59  57  93 S3        30.12R
RUIDOSO        CLEAR     50  41  71 W10       30.29S
SANTA FE       CLEAR     50  37  61 N9        30.22R
TRUTH OR CONSE CLEAR     61  50  67 S5        30.17R
TUCUMCARI      CLEAR     64  54  69 S15       30.09R
$$

USA.gov is the U.S. government's official web portal to all federal, state and local government web resources and services.